"startDT [UTC]","vpos","CH4 [ppm]","stdev(CH4) [ppm]","CO2 [ppm]","stdev(CO2) [ppm]","H2O [ppm]","stdev(H2O)","p_LGR [torr]","T_LGR [C]","mt1_LGR [us]","mt2_LGR [us]","T_ECpre [C]","T_EC1 [C]","T_EC2 [C]","p_inlet [hPa]","p_in [hPa]","p_out [hPa]","T_inlet [C]","RH_inlet [%]","dwpt_inlet [C]","T_vent [C]","RH_vent [%]","dwpt_vent [C]","flow_vent [l min-1]","flow_inlet [l min-1]","dwpt_sample [C]","T_room [C]"
2013-01-17 00:00:00,0.0,1.9423,0.0012,405.40,0.41,-1.0,0.0,138.05,31.17,24.65,36.41,0.04,-272.75,-272.75,-46,554,-939,23.3,0.7,-38.7,23.2,0.8,-37.8,5.73,2.42,-32.9,28.0
2013-01-17 00:01:00,0.0,1.9440,0.0010,405.44,0.39,-1.0,0.0,138.05,31.17,24.65,36.41,0.04,-272.75,-272.75,-46,554,-939,23.2,0.8,-38.7,23.2,0.8,-37.9,5.73,2.43,-32.9,28.0
2013-01-17 00:02:00,0.0,1.9436,0.0012,405.42,0.39,-1.0,0.0,138.05,31.17,24.65,36.42,0.04,-272.75,-272.75,-47,553,-939,23.2,0.7,-38.8,23.2,0.8,-38.2,5.73,2.44,-32.9,28.0
2013-01-17 00:03:00,0.0,1.9434,0.0009,405.44,0.43,-1.0,0.0,138.06,31.17,24.66,36.41,0.04,-272.75,-272.75,-47,554,-939,23.2,0.7,-39.1,23.2,0.8,-38.3,5.73,2.43,-32.9,28.0
2013-01-17 00:04:00,0.0,1.9428,0.0016,405.35,0.46,-1.0,0.0,138.06,31.17,24.65,36.41,0.04,-272.75,-272.75,-47,554,-939,23.2,0.7,-39.3,23.2,0.8,-38.3,5.73,2.42,-32.9,28.0
2013-01-17 00:05:00,0.0,1.9422,0.0010,405.39,0.39,-1.0,0.0,138.06,31.17,24.65,36.41,0.04,-272.75,-272.76,-47,554,-940,23.3,0.7,-39.4,23.2,0.8,-38.5,5.73,2.42,-32.9,28.0
2013-01-17 00:06:00,0.0,1.9415,0.0010,405.36,0.41,-1.0,0.0,138.06,31.17,24.65,36.41,0.04,-272.75,-272.75,-47,554,-939,23.2,0.7,-39.4,23.2,0.8,-38.7,5.73,2.40,-32.9,27.9
2013-01-17 00:07:00,0.0,1.9424,0.0013,405.31,0.40,-1.0,0.0,138.06,31.17,24.66,36.41,0.04,-272.75,-272.75,-47,554,-939,23.2,0.7,-39.7,23.2,0.7,-38.8,5.73,2.39,-32.9,27.9
2013-01-17 00:08:00,0.0,1.9417,0.0009,405.16,0.46,-1.0,0.0,138.05,31.17,24.65,36.42,0.04,-272.75,-272.75,-47,554,-939,23.3,0.7,-39.8,23.2,0.7,-38.9,5.73,2.39,-32.9,27.9
2013-01-17 00:09:00,0.0,1.9418,0.0009,405.24,0.43,-1.0,0.0,138.05,31.17,24.65,36.42,0.04,-272.75,-272.75,-47,554,-939,23.2,0.7,-39.9,23.2,0.7,-38.8,5.73,2.39,-32.9,28.0
2013-01-17 00:10:00,0.0,1.9416,0.0011,405.30,0.45,-1.0,0.0,138.06,31.17,24.66,36.42,0.04,-272.75,-272.75,-47,554,-939,23.2,0.7,-39.8,23.2,0.7,-38.7,5.73,2.39,-32.9,27.9
2013-01-17 00:11:00,0.0,1.9420,0.0009,405.32,0.39,-1.0,0.0,138.05,31.17,24.65,36.42,0.04,-272.75,-272.75,-47,554,-939,23.2,0.7,-39.7,23.2,0.7,-38.7,5.73,2.41,-32.9,28.0
2013-01-17 00:12:00,0.0,1.9428,0.0009,405.35,0.43,-1.0,0.0,138.05,31.17,24.66,36.41,0.04,-272.75,-272.75,-47,554,-940,23.3,0.7,-39.4,23.2,0.7,-38.7,5.73,2.41,-32.9,28.0
2013-01-17 00:13:00,0.0,1.9428,0.0010,405.35,0.44,-1.0,0.0,138.05,31.17,24.65,36.41,0.04,-272.75,-272.75,-47,554,-939,23.2,0.7,-39.4,23.2,0.8,-38.7,5.73,2.42,-32.9,28.0
2013-01-17 00:14:00,0.0,1.9436,0.0009,405.39,0.47,-1.0,0.0,138.05,31.17,24.65,36.41,0.04,-272.75,-272.75,-47,554,-939,23.2,0.7,-39.4,23.2,0.8,-38.4,5.73,2.43,-32.9,27.9
2013-01-17 00:15:00,0.0,1.9429,0.0010,405.33,0.44,-1.0,0.0,138.05,31.17,24.66,36.42,0.04,-272.75,-272.75,-47,553,-939,23.2,0.7,-39.4,23.2,0.8,-38.5,5.73,2.43,-33.0,28.0
2013-01-17 00:16:00,0.0,1.9421,0.0008,405.28,0.45,-1.0,0.0,138.05,31.18,24.66,36.41,0.04,-272.75,-272.75,-47,553,-939,23.3,0.7,-39.4,23.2,0.8,-38.6,5.73,2.43,-33.0,28.0
2013-01-17 00:17:00,0.0,1.9423,0.0013,405.31,0.42,-1.0,0.0,138.05,31.18,24.65,36.41,0.04,-272.75,-272.75,-47,553,-939,23.3,0.7,-39.3,23.2,0.8,-38.6,5.73,2.43,-33.0,28.1
2013-01-17 00:18:00,0.0,1.9416,0.0009,405.09,0.41,-1.0,0.0,138.05,31.18,24.65,36.41,0.04,-272.75,-272.75,-47,554,-939,23.3,0.7,-39.0,23.2,0.8,-38.3,5.73,2.42,-33.0,28.0
2013-01-17 00:19:00,0.0,1.9421,0.0008,405.33,0.41,-1.0,0.0,138.05,31.18,24.66,36.41,0.04,-272.75,-272.75,-47,554,-939,23.3,0.7,-38.9,23.2,0.8,-38.2,5.73,2.42,-33.0,27.9
2013-01-17 00:20:00,0.0,1.9422,0.0010,405.31,0.45,-1.0,0.0,138.05,31.18,24.65,36.41,0.04,-272.75,-272.75,-47,554,-939,23.3,0.7,-38.7,23.2,0.8,-38.2,5.73,2.41,-33.0,28.0
2013-01-17 00:21:00,0.0,1.9411,0.0008,405.18,0.47,-1.0,0.0,138.05,31.18,24.66,36.41,0.04,-272.75,-272.75,-47,554,-939,23.3,0.8,-38.5,23.2,0.8,-37.8,5.73,2.40,-33.0,28.0
2013-01-17 00:22:00,0.0,1.9409,0.0008,405.14,0.41,-1.0,0.0,138.05,31.18,24.65,36.42,0.04,-272.75,-272.75,-47,554,-940,23.3,0.8,-38.3,23.2,0.8,-37.5,5.73,2.39,-33.0,28.0
2013-01-17 00:23:00,0.0,1.9411,0.0008,405.08,0.41,-1.0,0.0,138.05,31.17,24.66,36.42,0.04,-272.75,-272.75,-47,554,-939,23.3,0.8,-38.3,23.2,0.8,-37.5,5.73,2.39,-33.0,27.9
2013-01-17 00:24:00,0.0,1.9407,0.0010,405.10,0.43,-1.0,0.0,138.05,31.17,24.66,36.42,0.04,-272.75,-272.75,-47,554,-939,23.3,0.8,-38.0,23.2,0.9,-37.4,5.73,2.40,-33.0,28.0
2013-01-17 00:25:00,0.0,1.9412,0.0009,405.21,0.41,-1.0,0.0,138.05,31.17,24.65,36.41,0.04,-272.75,-272.75,-47,554,-940,23.3,0.8,-38.0,23.2,0.9,-37.1,5.73,2.40,-33.0,28.0
2013-01-17 00:26:00,0.0,1.9406,0.0010,405.13,0.46,-1.0,0.0,138.05,31.18,24.66,36.41,0.04,-272.75,-272.75,-47,553,-939,23.2,0.8,-38.0,23.2,0.9,-37.1,5.73,2.41,-33.0,28.0
2013-01-17 00:27:00,0.0,1.9408,0.0010,405.16,0.39,-1.0,0.0,138.05,31.18,24.66,36.41,0.04,-272.75,-272.75,-47,553,-939,23.3,0.8,-37.6,23.2,0.9,-37.2,5.73,2.41,-33.0,28.0
2013-01-17 00:28:00,0.0,1.9406,0.0009,405.17,0.43,-1.0,0.0,138.06,31.18,24.66,36.41,0.04,-272.75,-272.75,-47,553,-939,23.2,0.8,-37.7,23.2,0.9,-36.9,5.73,2.42,-33.0,28.0
2013-01-17 00:29:00,0.0,1.9410,0.0010,405.12,0.39,-1.0,0.0,138.06,31.18,24.65,36.41,0.04,-272.75,-272.75,-47,554,-940,23.2,0.8,-37.7,23.2,0.9,-37.1,5.73,2.43,-33.0,28.0
2013-01-17 00:30:00,0.0,1.9403,0.0008,405.02,0.38,-1.0,0.0,138.06,31.17,24.65,36.42,0.04,-272.75,-272.75,-47,553,-940,23.2,0.8,-38.0,23.2,0.9,-37.1,5.73,2.43,-33.0,27.9
2013-01-17 00:31:00,0.0,1.9405,0.0009,405.15,0.38,-1.0,0.0,138.05,31.17,24.65,36.41,0.04,-272.75,-272.75,-47,554,-939,23.3,0.8,-37.9,23.2,0.9,-37.1,5.73,2.43,-33.0,27.9
2013-01-17 00:32:00,0.0,1.9404,0.0008,405.03,0.48,-1.0,0.0,138.05,31.17,24.65,36.42,0.04,-272.75,-272.75,-47,554,-939,23.3,0.8,-38.0,23.2,0.9,-37.1,5.73,2.42,-33.0,27.9
2013-01-17 00:33:00,0.0,1.9405,0.0009,405.10,0.47,-1.0,0.0,138.05,31.18,24.65,36.41,0.04,-272.75,-272.75,-47,553,-940,23.3,0.8,-38.0,23.2,0.9,-37.1,5.73,2.42,-33.0,28.0
2013-01-17 00:34:00,0.0,1.9407,0.0009,405.14,0.36,-1.0,0.0,138.05,31.17,24.65,36.41,0.04,-272.75,-272.75,-47,553,-940,23.3,0.8,-38.0,23.2,0.9,-37.1,5.73,2.41,-33.0,28.0
2013-01-17 00:35:00,0.0,1.9409,0.0009,405.00,0.38,-1.0,0.0,138.05,31.17,24.65,36.42,0.04,-272.75,-272.75,-47,554,-940,23.2,0.8,-37.7,23.2,0.9,-37.1,5.73,2.40,-33.1,28.0
2013-01-17 00:36:00,0.0,1.9403,0.0010,405.07,0.41,-1.0,0.0,138.05,31.18,24.65,36.42,0.04,-272.75,-272.75,-47,554,-940,23.2,0.8,-37.7,23.2,0.9,-36.9,5.73,2.39,-33.0,28.0
2013-01-17 00:37:00,0.0,1.9396,0.0009,405.01,0.41,-1.0,0.0,138.05,31.18,24.65,36.41,0.04,-272.75,-272.75,-47,553,-940,23.3,0.8,-37.6,23.2,0.9,-36.8,5.73,2.39,-33.0,28.0
2013-01-17 00:38:00,0.0,1.9391,0.0010,405.14,0.46,-1.0,0.0,138.05,31.18,24.65,36.41,0.04,-272.75,-272.75,-47,554,-939,23.3,0.8,-37.6,23.2,0.9,-36.9,5.73,2.39,-33.0,28.0
2013-01-17 00:39:00,0.0,1.9399,0.0009,405.09,0.41,-1.0,0.0,138.05,31.18,24.65,36.42,0.04,-272.75,-272.76,-47,553,-940,23.2,0.8,-37.7,23.2,0.9,-36.9,5.73,2.40,-33.0,28.0
2013-01-17 00:40:00,0.0,1.9395,0.0008,404.99,0.45,-1.0,0.0,138.05,31.18,24.65,36.41,0.04,-272.75,-272.75,-47,553,-940,23.3,0.9,-37.4,23.2,0.9,-36.9,5.73,2.41,-33.0,28.0
2013-01-17 00:41:00,0.0,1.9394,0.0010,405.00,0.39,-1.0,0.0,138.05,31.18,24.66,36.41,0.04,-272.75,-272.75,-47,553,-940,23.3,0.9,-37.2,23.2,0.9,-36.8,5.73,2.42,-33.0,28.0
2013-01-17 00:42:00,0.0,1.9400,0.0010,405.11,0.46,-1.0,0.0,138.05,31.18,24.65,36.42,0.04,-272.75,-272.75,-47,553,-940,23.2,0.9,-37.4,23.2,0.9,-36.8,5.73,2.43,-33.0,27.9
2013-01-17 00:43:00,0.0,1.9383,0.0012,404.86,0.43,-1.0,0.0,138.05,31.18,24.65,36.42,0.04,-272.75,-272.75,-47,553,-940,23.3,0.8,-37.6,23.2,0.9,-36.8,5.73,2.44,-33.0,28.0
2013-01-17 00:44:00,0.0,1.9366,0.0009,404.67,0.40,-1.0,0.0,138.06,31.18,24.65,36.42,0.04,-272.75,-272.75,-47,553,-940,23.3,0.8,-37.7,23.2,0.9,-36.8,5.73,2.43,-33.1,28.0
2013-01-17 00:45:00,0.0,1.9361,0.0013,404.89,0.41,-1.0,0.0,138.06,31.18,24.66,36.41,0.04,-272.75,-272.75,-47,553,-939,23.2,0.8,-37.6,23.2,0.9,-37.0,5.73,2.43,-33.1,28.0
2013-01-17 00:46:00,0.0,1.9346,0.0009,404.58,0.41,-1.0,0.0,138.06,31.18,24.65,36.42,0.04,-272.75,-272.75,-47,553,-940,23.2,0.8,-37.6,23.2,0.9,-37.1,5.73,2.42,-33.1,28.0
2013-01-17 00:47:00,0.0,1.9339,0.0010,404.53,0.44,-1.0,0.0,138.06,31.18,24.66,36.42,0.04,-272.75,-272.75,-46,553,-940,23.2,0.8,-37.8,23.1,0.9,-37.1,5.73,2.42,-33.0,28.0
2013-01-17 00:48:00,0.0,1.9337,0.0009,404.44,0.37,-1.0,0.0,138.06,31.18,24.66,36.41,0.04,-272.75,-272.75,-47,553,-939,23.2,0.8,-37.9,23.1,0.9,-37.1,5.73,2.40,-33.0,27.9
2013-01-17 00:49:00,0.0,1.9332,0.0009,404.51,0.39,-1.0,0.0,138.06,31.18,24.65,36.41,0.04,-272.75,-272.75,-47,553,-939,23.2,0.8,-38.0,23.2,0.9,-37.4,5.73,2.40,-33.0,28.0
2013-01-17 00:50:00,0.0,1.9319,0.0008,404.29,0.48,-1.0,0.0,138.06,31.18,24.66,36.41,0.04,-272.74,-272.75,-47,553,-940,23.2,0.8,-38.1,23.1,0.9,-37.4,5.73,2.39,-33.0,28.0
2013-01-17 00:51:00,0.0,1.9324,0.0009,404.39,0.39,-1.0,0.0,138.05,31.18,24.65,36.42,0.04,-272.75,-272.75,-47,553,-939,23.2,0.8,-38.2,23.2,0.9,-37.4,5.73,2.39,-33.1,27.9
2013-01-17 00:52:00,0.0,1.9323,0.0010,404.46,0.42,-1.0,0.0,138.05,31.18,24.65,36.41,0.04,-272.75,-272.75,-47,553,-940,23.2,0.8,-38.2,23.2,0.9,-37.4,5.73,2.40,-33.0,28.0
2013-01-17 00:53:00,0.0,1.9327,0.0008,404.37,0.37,-1.0,0.0,138.05,31.19,24.65,36.42,0.04,-272.75,-272.75,-47,553,-939,23.2,0.8,-38.3,23.2,0.8,-37.5,5.73,2.41,-33.1,28.0
2013-01-17 00:54:00,0.0,1.9335,0.0011,404.55,0.42,-1.0,0.0,138.05,31.19,24.65,36.41,0.04,-272.75,-272.75,-47,554,-940,23.2,0.8,-38.3,23.2,0.8,-37.5,5.73,2.40,-33.0,27.9
2013-01-17 00:55:00,0.0,1.9346,0.0010,404.52,0.42,-1.0,0.0,138.05,31.19,24.65,36.41,0.04,-272.75,-272.75,-46,553,-940,23.2,0.8,-38.3,23.2,0.9,-37.5,5.73,2.41,-33.1,28.0
2013-01-17 00:56:00,0.0,1.9354,0.0010,404.59,0.44,-1.0,0.0,138.05,31.19,24.66,36.41,0.04,-272.75,-272.75,-47,553,-939,23.3,0.8,-38.1,23.2,0.9,-37.4,5.73,2.43,-33.1,28.0
2013-01-17 00:57:00,0.0,1.9360,0.0011,404.59,0.40,-1.0,0.0,138.05,31.19,24.65,36.42,0.04,-272.75,-272.75,-47,553,-940,23.3,0.8,-38.0,23.2,0.9,-37.4,5.73,2.43,-33.0,27.9
2013-01-17 00:58:00,0.0,1.9359,0.0009,404.66,0.38,-1.0,0.0,138.05,31.19,24.66,36.42,0.04,-272.75,-272.75,-47,553,-940,23.3,0.8,-37.9,23.2,0.9,-37.2,5.73,2.43,-33.0,28.0
2013-01-17 00:59:00,0.0,1.9371,0.0008,404.76,0.43,-1.0,0.0,138.05,31.19,24.65,36.41,0.04,-272.75,-272.75,-47,553,-940,23.2,0.8,-37.9,23.2,0.9,-37.1,5.73,2.43,-33.0,28.0
2013-01-17 01:00:00,0.0,1.9368,0.0008,404.67,0.42,-1.0,0.0,138.05,31.19,24.65,36.42,0.04,-272.75,-272.75,-47,553,-939,23.2,0.8,-37.6,23.2,0.9,-36.9,5.73,2.43,-33.0,28.0
2013-01-17 01:01:00,0.0,1.9357,0.0010,404.68,0.37,-1.0,0.0,138.05,31.18,24.65,36.41,0.04,-272.75,-272.75,-47,553,-940,23.2,0.8,-37.6,23.2,0.9,-36.8,5.73,2.42,-33.0,28.0
2013-01-17 01:02:00,0.0,1.9352,0.0008,404.57,0.45,-1.0,0.0,138.05,31.18,24.65,36.42,0.04,-272.75,-272.75,-47,553,-940,23.2,0.8,-37.6,23.2,0.9,-36.8,5.73,2.41,-33.0,28.0
2013-01-17 01:03:00,0.0,1.9355,0.0010,404.71,0.48,-1.0,0.0,138.06,31.18,24.65,36.41,0.04,-272.75,-272.75,-47,553,-940,23.2,0.8,-37.6,23.2,0.9,-36.8,5.73,2.40,-33.0,27.9
2013-01-17 01:04:00,0.0,1.9355,0.0013,404.71,0.35,-1.0,0.0,138.06,31.18,24.65,36.41,0.04,-272.75,-272.75,-47,553,-940,23.2,0.8,-37.6,23.2,0.9,-36.8,5.73,2.40,-33.0,27.9
2013-01-17 01:05:00,0.0,1.9349,0.0010,404.64,0.46,-1.0,0.0,138.05,31.18,24.65,36.41,0.04,-272.75,-272.75,-47,553,-939,23.2,0.8,-37.6,23.2,0.9,-36.8,5.73,2.39,-33.0,28.0
2013-01-17 01:06:00,0.0,1.9336,0.0010,404.46,0.43,-1.0,0.0,138.05,31.19,24.65,36.41,0.04,-272.75,-272.75,-47,553,-940,23.2,0.8,-37.7,23.2,0.9,-36.8,5.73,2.40,-33.0,28.0
2013-01-17 01:07:00,0.0,1.9334,0.0009,404.48,0.35,-1.0,0.0,138.05,31.19,24.65,36.41,0.04,-272.75,-272.75,-47,553,-940,23.3,0.8,-37.6,23.2,0.9,-37.1,5.73,2.40,-33.0,28.0
2013-01-17 01:08:00,0.0,1.9331,0.0009,404.54,0.43,-1.0,0.0,138.05,31.19,24.66,36.41,0.04,-272.75,-272.75,-47,553,-940,23.3,0.8,-37.6,23.2,0.9,-37.1,5.73,2.40,-33.0,28.0
2013-01-17 01:09:00,0.0,1.9331,0.0011,404.36,0.43,-1.0,0.0,138.05,31.19,24.66,36.42,0.04,-272.75,-272.75,-47,553,-940,23.2,0.8,-37.7,23.2,0.9,-37.1,5.73,2.41,-33.0,28.0
2013-01-17 01:10:00,0.0,1.9333,0.0009,404.42,0.42,-1.0,0.0,138.05,31.19,24.66,36.42,0.04,-272.75,-272.75,-47,554,-940,23.2,0.8,-37.9,23.2,0.9,-37.1,5.73,2.42,-33.0,28.0
2013-01-17 01:11:00,0.0,1.9333,0.0011,404.35,0.40,-1.0,0.0,138.05,31.20,24.65,36.42,0.04,-272.75,-272.75,-46,553,-940,23.3,0.8,-37.9,23.2,0.9,-37.1,5.73,2.42,-33.0,28.0
2013-01-17 01:12:00,0.0,1.9337,0.0009,404.41,0.45,-1.0,0.0,138.05,31.20,24.65,36.42,0.04,-272.75,-272.75,-46,553,-940,23.2,0.8,-38.0,23.2,0.9,-37.0,5.73,2.43,-33.0,28.0
2013-01-17 01:13:00,0.0,1.9340,0.0010,404.55,0.44,-1.0,0.0,138.05,31.20,24.65,36.41,0.04,-272.75,-272.75,-47,553,-940,23.3,0.8,-37.9,23.2,0.9,-37.1,5.73,2.43,-33.0,28.0
2013-01-17 01:14:00,0.0,1.9335,0.0010,404.51,0.44,-1.0,0.0,138.05,31.20,24.65,36.41,0.04,-272.75,-272.75,-47,553,-940,23.2,0.8,-38.0,23.2,0.9,-37.2,5.73,2.43,-33.0,28.0
2013-01-17 01:15:00,0.0,1.9331,0.0008,404.49,0.40,-1.0,0.0,138.05,31.20,24.65,36.41,0.04,-272.75,-272.75,-47,553,-940,23.2,0.8,-38.0,23.2,0.9,-37.4,5.73,2.43,-33.0,28.0
2013-01-17 01:16:00,0.0,1.9331,0.0009,404.54,0.45,-1.0,0.0,138.05,31.20,24.66,36.41,0.04,-272.75,-272.75,-47,553,-940,23.2,0.8,-38.0,23.2,0.9,-37.4,5.73,2.42,-33.0,28.0
2013-01-17 01:17:00,0.0,1.9337,0.0011,404.46,0.33,-1.0,0.0,138.05,31.20,24.65,36.42,0.04,-272.75,-272.75,-47,553,-940,23.3,0.8,-38.0,23.2,0.9,-37.4,5.73,2.41,-33.0,28.0
2013-01-17 01:18:00,0.0,1.9342,0.0008,404.66,0.38,-1.0,0.0,138.05,31.20,24.66,36.41,0.04,-272.75,-272.75,-47,553,-940,23.2,0.8,-38.3,23.2,0.9,-37.3,5.73,2.41,-33.0,28.0
2013-01-17 01:19:00,0.0,1.9347,0.0008,404.61,0.41,-1.0,0.0,138.05,31.20,24.66,36.41,0.04,-272.75,-272.75,-46,553,-940,23.3,0.8,-38.3,23.2,0.9,-37.4,5.73,2.40,-33.0,27.9
2013-01-17 01:20:00,0.0,1.9335,0.0011,404.57,0.39,-1.0,0.0,138.05,31.21,24.66,36.41,0.04,-272.75,-272.75,-47,553,-940,23.2,0.8,-38.4,23.2,0.9,-37.4,5.73,2.40,-33.0,28.0
2013-01-17 01:21:00,0.0,1.9334,0.0009,404.57,0.39,-1.0,0.0,138.05,31.20,24.66,36.41,0.04,-272.75,-272.75,-47,553,-940,23.2,0.8,-38.1,23.2,0.9,-37.4,5.73,2.39,-33.0,27.9
2013-01-17 01:22:00,0.0,1.9353,0.0011,404.55,0.35,-1.0,0.0,138.05,31.20,24.65,36.42,0.04,-272.75,-272.75,-47,553,-940,23.2,0.8,-38.0,23.2,0.9,-37.4,5.73,2.39,-33.0,28.0
2013-01-17 01:23:00,0.0,1.9357,0.0013,404.71,0.41,-1.0,0.0,138.05,31.20,24.65,36.41,0.04,-272.75,-272.75,-47,553,-940,23.2,0.8,-38.0,23.2,0.9,-37.4,5.73,2.40,-33.0,27.9
2013-01-17 01:24:00,0.0,1.9347,0.0010,404.67,0.37,-1.0,0.0,138.05,31.20,24.66,36.42,0.04,-272.75,-272.75,-47,553,-940,23.2,0.8,-38.0,23.2,0.9,-37.3,5.73,2.41,-33.0,28.0
2013-01-17 01:25:00,0.0,1.9354,0.0008,404.57,0.42,-1.0,0.0,138.05,31.20,24.65,36.42,0.04,-272.75,-272.75,-47,553,-940,23.2,0.8,-38.0,23.2,0.9,-37.5,5.73,2.42,-33.0,27.9
2013-01-17 01:26:00,0.0,1.9348,0.0012,404.50,0.44,-1.0,0.0,138.05,31.20,24.65,36.41,0.04,-272.75,-272.75,-47,553,-940,23.2,0.8,-38.0,23.2,0.9,-37.4,5.73,2.43,-33.0,27.9
2013-01-17 01:27:00,0.0,1.9349,0.0010,404.55,0.39,-1.0,0.0,138.05,31.20,24.65,36.42,0.04,-272.75,-272.75,-46,553,-940,23.3,0.8,-38.0,23.2,0.9,-37.2,5.73,2.43,-33.0,28.0
2013-01-17 01:28:00,0.0,1.9359,0.0009,404.50,0.40,-1.0,0.0,138.05,31.20,24.65,36.42,0.04,-272.75,-272.75,-47,553,-940,23.2,0.8,-37.9,23.2,0.9,-37.1,5.73,2.43,-33.0,28.0
2013-01-17 01:29:00,0.0,1.9355,0.0010,404.60,0.44,-1.0,0.0,138.05,31.21,24.65,36.41,0.04,-272.75,-272.75,-47,553,-940,23.2,0.8,-37.9,23.2,0.9,-37.1,5.73,2.43,-33.0,28.0
2013-01-17 01:30:00,0.0,1.9354,0.0008,404.57,0.38,-1.0,0.0,138.05,31.20,24.65,36.41,0.04,-272.75,-272.75,-47,553,-940,23.3,0.8,-38.0,23.2,0.9,-37.1,5.73,2.43,-33.0,28.0
2013-01-17 01:31:00,0.0,1.9355,0.0009,404.74,0.40,-1.0,0.0,138.05,31.20,24.65,36.41,0.04,-272.75,-272.75,-47,553,-940,23.3,0.8,-38.0,23.2,0.9,-37.1,5.73,2.42,-33.0,28.0
2013-01-17 01:32:00,0.0,1.9353,0.0009,404.61,0.39,-1.0,0.0,138.05,31.20,24.65,36.42,0.04,-272.75,-272.75,-47,553,-940,23.2,0.8,-37.9,23.1,0.9,-37.1,5.73,2.42,-33.0,28.0
2013-01-17 01:33:00,0.0,1.9357,0.0008,404.60,0.45,-1.0,0.0,138.05,31.21,24.65,36.41,0.04,-272.75,-272.75,-47,553,-940,23.2,0.8,-38.0,23.2,0.9,-37.1,5.73,2.40,-33.0,28.0
2013-01-17 01:34:00,0.0,1.9362,0.0009,404.57,0.47,-1.0,0.0,138.05,31.21,24.65,36.42,0.04,-272.75,-272.75,-47,553,-940,23.2,0.8,-38.0,23.2,0.9,-37.0,5.73,2.40,-33.0,28.0
2013-01-17 01:35:00,0.0,1.9361,0.0008,404.53,0.41,-1.0,0.0,138.05,31.21,24.66,36.42,0.04,-272.75,-272.75,-47,553,-940,23.2,0.8,-37.9,23.2,0.9,-37.1,5.73,2.40,-33.0,28.0
2013-01-17 01:36:00,0.0,1.9364,0.0010,404.66,0.39,-1.0,0.0,138.05,31.21,24.65,36.41,0.04,-272.75,-272.75,-46,553,-940,23.2,0.8,-37.9,23.2,0.9,-37.1,5.73,2.39,-33.0,28.0
2013-01-17 01:37:00,0.0,1.9363,0.0010,404.57,0.47,-1.0,0.0,138.05,31.21,24.65,36.42,0.04,-272.75,-272.75,-47,553,-940,23.2,0.8,-37.9,23.2,0.9,-37.1,5.73,2.39,-33.0,28.0
2013-01-17 01:38:00,0.0,1.9360,0.0009,404.59,0.40,-1.0,0.0,138.05,31.21,24.65,36.42,0.04,-272.75,-272.75,-47,553,-940,23.2,0.8,-37.9,23.1,0.9,-37.2,5.73,2.40,-33.0,28.0
2013-01-17 01:39:00,0.0,1.9360,0.0009,404.59,0.41,-1.0,0.0,138.05,31.21,24.65,36.41,0.04,-272.75,-272.75,-47,553,-940,23.2,0.8,-37.7,23.2,0.9,-37.1,5.73,2.41,-33.0,28.0
2013-01-17 01:40:00,0.0,1.9353,0.0009,404.55,0.44,-1.0,0.0,138.05,31.21,24.65,36.42,0.04,-272.75,-272.75,-47,553,-940,23.3,0.8,-37.6,23.2,0.9,-37.1,5.73,2.41,-33.0,28.0
2013-01-17 01:41:00,0.0,1.9356,0.0008,404.62,0.43,-1.0,0.0,138.05,31.21,24.65,36.42,0.04,-272.75,-272.75,-47,553,-940,23.3,0.8,-37.6,23.1,0.9,-37.1,5.73,2.42,-33.0,28.0
2013-01-17 01:42:00,0.0,1.9357,0.0010,404.58,0.41,-1.0,0.0,138.05,31.21,24.65,36.42,0.04,-272.75,-272.75,-47,553,-940,23.3,0.8,-37.6,23.2,0.9,-36.8,5.73,2.43,-33.0,27.9
2013-01-17 01:43:00,0.0,1.9356,0.0008,404.57,0.47,-1.0,0.0,138.05,31.21,24.65,36.42,0.04,-272.75,-272.75,-46,553,-940,23.2,0.8,-37.7,23.2,0.9,-36.8,5.73,2.43,-33.0,28.0
2013-01-17 01:44:00,0.0,1.9355,0.0011,404.50,0.35,-1.0,0.0,138.05,31.21,24.65,36.41,0.04,-272.75,-272.75,-47,553,-940,23.3,0.8,-37.6,23.2,0.9,-36.8,5.73,2.44,-33.0,28.0
2013-01-17 01:45:00,0.0,1.9357,0.0009,404.51,0.36,-1.0,0.0,138.05,31.21,24.65,36.42,0.04,-272.75,-272.75,-47,553,-940,23.2,0.9,-37.3,23.2,0.9,-36.8,5.73,2.42,-33.0,28.0
2013-01-17 01:46:00,0.0,1.9352,0.0011,404.55,0.46,-1.0,0.0,138.05,31.21,24.65,36.42,0.04,-272.75,-272.75,-47,553,-940,23.2,0.9,-37.3,23.1,0.9,-36.8,5.73,2.42,-33.0,28.0
2013-01-17 01:47:00,0.0,1.9358,0.0010,404.52,0.36,-1.0,0.0,138.05,31.21,24.65,36.42,0.04,-272.75,-272.75,-47,553,-940,23.2,0.9,-37.3,23.2,0.9,-36.5,5.73,2.41,-33.0,28.0
2013-01-17 01:48:00,0.0,1.9360,0.0009,404.76,0.43,-1.0,0.0,138.05,31.21,24.65,36.41,0.04,-272.75,-272.75,-47,553,-939,23.3,0.9,-37.3,23.1,0.9,-36.5,5.73,2.40,-33.0,28.0
2013-01-17 01:49:00,0.0,1.9357,0.0009,404.61,0.40,-1.0,0.0,138.05,31.21,24.65,36.41,0.04,-272.75,-272.75,-47,553,-939,23.2,0.9,-37.3,23.2,0.9,-36.5,5.73,2.40,-33.0,28.0
2013-01-17 01:50:00,0.0,1.9357,0.0008,404.64,0.45,-1.0,0.0,138.05,31.21,24.65,36.42,0.04,-272.75,-272.75,-47,553,-939,23.2,0.9,-37.1,23.1,0.9,-36.6,5.73,2.39,-33.0,28.0
2013-01-17 01:51:00,0.0,1.9360,0.0009,404.60,0.41,-1.0,0.0,138.05,31.21,24.65,36.41,0.04,-272.75,-272.75,-46,553,-939,23.2,0.9,-37.0,23.2,0.9,-36.5,5.73,2.39,-33.0,27.9
2013-01-17 01:52:00,0.0,1.9361,0.0008,404.64,0.46,-1.0,0.0,138.05,31.21,24.65,36.41,0.04,-272.75,-272.75,-46,553,-940,23.2,0.9,-37.0,23.1,0.9,-36.4,5.73,2.40,-33.0,28.0
2013-01-17 01:53:00,0.0,1.9361,0.0007,404.65,0.39,-1.0,0.0,138.05,31.21,24.65,36.42,0.04,-272.75,-272.75,-47,553,-939,23.2,0.9,-37.0,23.2,1.0,-36.2,5.73,2.40,-33.0,28.0
2013-01-17 01:54:00,0.0,1.9368,0.0010,404.61,0.41,-1.0,0.0,138.05,31.21,24.65,36.42,0.04,-272.74,-272.75,-47,553,-939,23.2,0.9,-37.0,23.2,1.0,-36.2,5.73,2.41,-33.0,28.0
2013-01-17 01:55:00,0.0,1.9371,0.0011,404.77,0.41,-1.0,0.0,138.05,31.21,24.65,36.42,0.04,-272.75,-272.75,-47,553,-939,23.2,0.9,-36.9,23.2,1.0,-36.3,5.73,2.41,-33.0,27.9
2013-01-17 01:56:00,0.0,1.9377,0.0008,404.88,0.42,-1.0,0.0,138.05,31.22,24.65,36.41,0.04,-272.75,-272.75,-47,553,-939,23.2,0.9,-37.0,23.2,0.9,-36.5,5.73,2.42,-33.0,28.0
2013-01-17 01:57:00,0.0,1.9379,0.0009,404.91,0.42,-1.0,0.0,138.05,31.22,24.65,36.41,0.04,-272.75,-272.75,-47,553,-940,23.2,0.9,-37.2,23.2,0.9,-36.5,5.73,2.43,-33.0,28.0
2013-01-17 01:58:00,0.0,1.9380,0.0010,404.85,0.48,-1.0,0.0,138.05,31.22,24.65,36.41,0.04,-272.75,-272.74,-47,553,-939,23.2,0.9,-37.3,23.2,0.9,-36.5,5.73,2.43,-33.0,28.0
2013-01-17 01:59:00,0.0,1.9364,0.0008,404.70,0.32,-1.0,0.0,138.05,31.22,24.65,36.41,0.04,-272.75,-272.75,-46,553,-939,23.2,0.9,-37.3,23.2,0.9,-36.6,5.73,2.43,-33.0,28.0
2013-01-17 02:00:00,0.0,1.9371,0.0009,404.66,0.39,-1.0,0.0,138.05,31.22,24.65,36.42,0.04,-272.75,-272.75,-46,553,-940,23.2,0.8,-37.6,23.2,0.9,-36.8,5.73,2.43,-33.0,28.0
2013-01-17 02:01:00,0.0,1.9375,0.0009,404.70,0.41,-1.0,0.0,138.05,31.22,24.65,36.42,0.04,-272.75,-272.75,-46,553,-940,23.2,0.8,-37.6,23.1,0.9,-36.9,5.73,2.42,-33.0,27.9
2013-01-17 02:02:00,0.0,1.9379,0.0008,404.79,0.47,-1.0,0.0,138.05,31.21,24.65,36.42,0.04,-272.75,-272.75,-47,553,-940,23.2,0.8,-37.9,23.2,0.9,-37.1,5.73,2.41,-33.0,27.9
2013-01-17 02:03:00,0.0,1.9377,0.0008,404.78,0.34,-1.0,0.0,138.05,31.21,24.65,36.41,0.04,-272.75,-272.75,-47,553,-939,23.2,0.8,-38.0,23.2,0.9,-37.1,5.73,2.41,-33.0,28.0
2013-01-17 02:04:00,0.0,1.9383,0.0010,404.85,0.36,-1.0,0.0,138.05,31.21,24.65,36.42,0.04,-272.75,-272.75,-47,553,-939,23.2,0.8,-38.0,23.2,0.9,-37.1,5.73,2.40,-33.0,28.0
2013-01-17 02:05:00,0.0,1.9385,0.0011,404.68,0.42,-1.0,0.0,138.05,31.21,24.65,36.42,0.04,-272.75,-272.75,-47,553,-940,23.3,0.8,-38.0,23.2,0.9,-37.1,5.73,2.39,-33.0,28.0
2013-01-17 02:06:00,0.0,1.9388,0.0010,404.82,0.37,-1.0,0.0,138.05,31.21,24.65,36.41,0.04,-272.75,-272.75,-47,553,-940,23.2,0.8,-38.0,23.2,0.9,-37.2,5.73,2.39,-33.0,28.0
2013-01-17 02:07:00,0.0,1.9388,0.0008,404.80,0.36,-1.0,0.0,138.05,31.21,24.65,36.42,0.04,-272.75,-272.75,-47,553,-939,23.2,0.8,-37.9,23.2,0.9,-37.0,5.73,2.39,-33.0,27.9
2013-01-17 02:08:00,0.0,1.9381,0.0008,404.81,0.46,-1.0,0.0,138.05,31.21,24.65,36.41,0.04,-272.75,-272.75,-47,553,-939,23.2,0.8,-37.9,23.1,0.9,-37.2,5.73,2.40,-33.0,28.0
2013-01-17 02:09:00,0.0,1.9382,0.0008,404.69,0.46,-1.0,0.0,138.05,31.21,24.65,36.41,0.04,-272.75,-272.75,-46,553,-940,23.2,0.8,-37.8,23.1,0.9,-37.1,5.73,2.41,-33.0,27.9
2013-01-17 02:10:00,0.0,1.9378,0.0009,404.70,0.42,-1.0,0.0,138.05,31.21,24.65,36.41,0.04,-272.75,-272.75,-47,553,-940,23.2,0.8,-38.0,23.1,0.9,-37.1,5.73,2.42,-33.0,28.0
2013-01-17 02:11:00,0.0,1.9374,0.0009,404.78,0.35,-1.0,0.0,138.05,31.21,24.65,36.41,0.04,-272.75,-272.75,-47,553,-940,23.2,0.8,-37.8,23.1,0.9,-37.1,5.73,2.43,-33.0,27.9
2013-01-17 02:12:00,0.0,1.9372,0.0008,404.70,0.32,-1.0,0.0,138.05,31.21,24.65,36.41,0.04,-272.75,-272.75,-47,553,-940,23.2,0.8,-37.7,23.1,0.9,-37.2,5.73,2.43,-33.0,27.9
2013-01-17 02:13:00,0.0,1.9369,0.0010,404.80,0.41,-1.0,0.0,138.05,31.21,24.65,36.41,0.04,-272.75,-272.75,-47,553,-940,23.2,0.8,-37.5,23.2,0.9,-37.0,5.73,2.43,-33.0,28.0
2013-01-17 02:14:00,0.0,1.9367,0.0008,404.87,0.38,-1.0,0.0,138.05,31.21,24.65,36.41,0.04,-272.75,-272.75,-47,553,-940,23.2,0.8,-37.5,23.2,0.9,-36.9,5.73,2.43,-33.0,28.0
2013-01-17 02:15:00,0.0,1.9374,0.0011,404.73,0.39,-1.0,0.0,138.06,31.21,24.65,36.41,0.04,-272.75,-272.75,-46,553,-940,23.2,0.8,-37.5,23.1,0.9,-36.8,5.73,2.43,-33.0,28.0
2013-01-17 02:16:00,0.0,1.9378,0.0010,404.84,0.42,-1.0,0.0,138.05,31.21,24.65,36.41,0.04,-272.75,-272.75,-46,553,-940,23.2,0.9,-37.3,23.1,0.9,-36.8,5.73,2.42,-33.0,28.0
2013-01-17 02:17:00,0.0,1.9377,0.0012,404.90,0.52,-1.0,0.0,138.05,31.21,24.66,36.41,0.04,-272.75,-272.75,-47,553,-940,23.2,0.9,-37.1,23.1,0.9,-36.8,5.73,2.41,-33.0,27.9
2013-01-17 02:18:00,0.0,1.9380,0.0010,404.85,0.37,-1.0,0.0,138.05,31.21,24.65,36.41,0.04,-272.75,-272.75,-47,553,-939,23.2,0.9,-37.1,23.1,0.9,-36.6,5.73,2.40,-33.0,27.9